Theta_e
325 325 323 323 322 320 318 317 315 313 311 310 308 307 307 307 307 307 306 306 305 305 305 305 304 304 303 303 302 301 300 299 298 298 297 298 297 296 295 293 292 292 292 292 292 291 290 290 291 291 292 292 292 292 293 293 293 293 293 293 293 293 292 292 293 294 293 293 292 292 292 291 292 292 292 293 293 294 294 293 293 293 293 293 293
323 323 322 321 321 319 317 315 314 312 310 309 308 307 307 306 306 306 306 305 305 305 304 304 304 303 303 302 302 301 300 299 298 298 298 298 297 295 294 292 292 292 293 293 292 291 291 290 291 292 292 292 292 293 293 293 293 293 293 293 293 293 293 292 292 293 293 293 292 292 291 291 292 292 292 293 293 293 293 293 293 293 293 293 293
321 321 320 320 319 317 316 314 312 310 309 308 307 306 306 306 305 305 305 305 305 304 304 304 303 303 303 302 302 301 300 299 298 299 299 297 295 294 293 292 292 293 293 293 293 292 291 290 291 292 292 292 292 293 293 293 293 293 293 293 293 293 293 293 292 292 292 292 292 291 291 291 292 292 293 292 292 292 292 292 293 292 293 293 293
319 319 318 317 316 315 314 312 310 309 308 307 306 306 305 305 305 305 305 304 304 304 304 303 303 303 302 302 302 301 300 299 299 299 298 296 294 294 293 292 293 293 293 294 293 292 291 291 291 292 292 293 293 293 293 293 293 293 293 293 293 293 293 292 292 292 292 292 291 291 291 291 292 292 293 292 292 292 292 292 292 292 292 293 293
317 317 316 315 314 313 312 311 309 308 307 306 306 305 304 304 305 305 304 304 304 303 303 303 303 302 302 302 302 301 300 299 299 298 296 295 295 295 294 294 294 294 294 294 293 292 292 292 292 293 293 293 293 293 293 293 293 293 292 292 292 292 292 292 292 292 292 291 291 291 291 291 292 292 292 292 292 292 292 292 292 292 292 292 293
316 315 315 314 313 312 311 309 308 307 306 306 305 304 304 304 304 304 304 304 304 303 303 303 302 302 302 302 302 301 300 298 297 296 295 295 296 296 296 295 294 294 294 294 293 293 292 292 293 293 293 293 293 293 292 292 292 292 292 292 292 292 292 292 291 291 291 291 291 291 291 291 291 292 292 292 291 292 292 292 292 292 292 292 293
315 314 314 313 312 311 310 308 307 307 306 305 304 304 304 304 304 303 303 303 303 303 303 303 302 302 302 302 302 301 299 297 296 295 296 296 297 297 296 296 295 295 295 294 293 293 292 292 293 293 293 293 293 293 293 292 292 292 292 292 292 292 292 291 291 291 291 291 291 291 291 291 291 292 292 292 292 292 292 292 292 292 292 292 292
314 314 313 312 311 310 308 307 307 306 305 304 304 303 303 303 303 303 303 303 303 303 303 303 302 302 302 302 301 300 299 298 297 297 297 297 297 297 297 296 296 295 295 294 294 293 292 292 293 293 294 294 293 293 292 292 292 292 292 292 292 292 291 291 291 291 291 291 291 291 291 291 291 291 292 292 292 292 292 292 292 292 292 292 292
313 313 312 311 310 308 307 306 306 305 304 303 303 303 303 302 302 302 302 302 303 303 303 303 302 302 302 301 300 300 299 299 299 299 299 298 298 298 297 297 297 296 295 294 294 293 293 293 293 294 294 294 293 292 292 292 292 292 291 291 292 291 291 291 290 291 291 291 291 291 291 291 291 291 291 291 291 292 291 291 292 292 292 292 293
312 311 311 310 309 307 306 306 305 304 303 303 302 302 302 301 301 301 300 301 302 302 302 302 302 302 301 301 300 300 300 300 300 300 299 299 298 298 298 297 297 296 295 294 294 293 293 293 293 293 294 294 293 292 292 292 292 292 291 291 291 291 291 290 290 290 290 291 291 291 291 291 291 291 291 291 291 291 291 291 291 292 292 292 293
311 310 310 309 308 307 306 305 304 304 303 302 302 301 301 301 301 300 299 299 300 302 302 302 302 301 301 301 300 300 300 300 300 299 299 299 299 298 298 298 297 296 295 295 295 294 293 293 293 294 294 294 293 292 292 292 292 292 291 291 291 291 290 290 290 290 290 290 290 290 290 290 290 291 291 291 291 291 291 291 291 292 292 292 293
310 310 310 309 307 306 306 305 304 303 303 302 302 301 301 301 300 299 297 296 299 301 302 302 302 301 301 301 300 300 300 300 299 299 299 299 299 298 298 298 298 297 296 295 295 295 293 293 293 294 294 293 293 292 292 292 292 292 291 291 291 290 289 289 290 290 290 290 290 290 291 290 290 291 291 291 291 290 291 291 291 291 292 292 293
310 309 310 309 307 306 306 305 304 303 303 302 302 301 301 301 301 299 296 294 297 300 301 301 301 301 301 301 300 300 300 300 299 299 298 298 298 298 298 298 298 297 296 295 295 295 294 293 293 294 294 293 292 292 292 292 292 291 291 290 290 289 289 289 290 290 290 290 290 291 291 290 290 291 292 291 290 290 290 291 291 291 292 292 292
309 309 309 308 306 306 305 305 304 303 302 302 301 301 301 301 300 298 294 294 296 299 300 301 301 301 301 300 300 300 300 300 299 299 298 298 298 298 298 297 297 298 297 295 295 296 294 293 293 294 293 293 292 292 292 292 292 291 290 289 289 289 289 289 290 291 291 291 291 291 292 292 291 292 293 292 290 290 290 290 291 291 291 291 292
308 308 308 307 306 305 305 304 304 303 302 302 301 301 301 300 298 296 293 293 294 296 298 299 300 300 300 300 300 300 300 300 299 299 299 298 298 298 298 297 297 297 297 295 296 296 294 293 293 294 293 293 292 292 292 292 292 291 290 289 289 289 289 289 289 290 291 292 292 292 293 293 293 293 293 292 291 290 290 290 291 291 291 291 292
308 307 307 306 306 305 305 304 303 302 302 301 301 300 300 299 297 294 293 293 294 295 296 298 299 299 299 300 300 299 299 299 299 299 299 299 299 299 298 297 296 297 297 296 296 296 294 293 294 294 293 293 292 292 292 292 291 290 289 289 289 289 289 289 289 289 290 291 292 292 293 293 293 293 293 293 292 291 290 290 290 290 290 291 292
308 307 307 306 306 305 305 305 303 302 301 301 300 300 299 299 296 293 292 293 294 295 296 296 298 298 298 299 299 299 299 299 299 299 299 298 298 298 298 297 297 297 297 296 296 295 293 293 294 294 293 293 292 292 292 291 291 290 289 289 288 288 289 289 289 289 289 289 290 291 292 293 293 293 293 293 293 291 290 290 290 289 290 292 292
308 307 307 307 306 305 305 305 303 302 301 301 301 300 300 299 297 294 292 292 293 294 295 296 297 297 298 298 298 298 298 298 297 298 298 298 298 297 297 297 297 297 297 296 296 295 293 293 294 294 294 293 293 292 292 291 290 289 289 288 288 288 288 288 289 289 289 289 289 290 291 292 293 293 293 293 293 292 290 289 289 289 290 291 292
308 308 307 306 306 305 305 305 304 302 301 301 301 300 300 300 297 293 292 292 293 293 295 295 296 297 297 297 298 298 298 298 297 297 297 296 296 296 296 297 297 297 296 296 296 295 293 293 294 294 294 294 293 292 292 291 290 289 288 288 287 287 288 288 288 288 289 289 288 289 290 292 292 293 293 293 293 292 291 290 289 289 289 290 291
308 308 307 306 306 305 305 304 304 303 302 301 301 301 301 299 296 292 291 292 292 293 294 295 295 296 296 297 297 297 297 297 296 295 293 292 292 293 295 296 296 296 296 296 296 295 293 293 294 294 294 294 293 292 292 291 289 288 288 288 288 288 288 288 288 288 288 288 288 288 289 291 292 293 293 293 293 292 292 291 290 289 289 290 291
308 307 307 306 306 305 305 304 304 303 302 302 301 301 301 300 296 292 291 292 292 292 293 293 294 294 294 295 295 295 294 293 292 291 290 290 291 291 293 294 295 295 295 295 294 294 293 293 294 294 294 294 293 292 292 291 290 289 289 289 289 288 288 288 289 288 288 288 288 288 288 290 291 292 292 293 292 292 292 292 291 290 290 290 290
308 307 307 306 305 305 305 304 304 303 303 302 302 301 300 299 296 292 291 291 291 291 291 291 291 291 291 291 291 291 290 290 290 290 290 290 290 290 291 291 292 293 293 293 293 293 293 294 294 294 294 294 293 292 292 291 291 290 290 290 290 290 290 289 289 289 289 288 288 288 288 289 290 291 291 292 292 292 292 292 292 291 291 290 290
308 307 306 306 305 305 304 304 304 303 303 302 302 301 299 297 294 292 291 291 290 290 290 290 290 290 290 290 290 290 290 290 290 290 290 290 290 290 290 290 290 291 291 292 293 293 293 294 294 294 294 294 293 293 292 292 292 291 291 291 291 291 291 291 290 290 289 289 288 288 288 288 289 290 291 291 292 292 292 292 293 292 291 291 291
307 307 306 306 305 304 304 303 303 303 303 302 302 301 299 297 294 292 292 291 290 290 291 290 290 290 290 290 290 290 290 290 290 290 290 290 289 289 289 289 290 291 292 293 293 293 294 294 294 294 294 294 293 293 292 292 292 292 292 291 292 292 292 291 291 290 290 289 289 288 288 288 288 290 290 291 291 292 292 292 293 293 292 291 291
307 307 306 305 305 304 303 303 303 303 303 302 302 301 299 297 295 294 294 293 292 291 292 292 292 291 291 291 291 291 291 290 290 290 290 290 289 289 289 289 290 291 293 293 293 294 294 294 294 295 294 294 293 293 293 293 292 292 292 292 292 292 292 292 292 291 291 290 289 289 288 288 288 289 290 290 291 291 291 292 293 293 292 291 291
307 306 305 305 304 304 303 303 302 303 303 302 302 301 300 299 298 296 296 297 296 294 293 293 294 294 293 293 293 293 292 292 292 291 290 290 290 289 289 290 291 292 293 293 293 294 294 294 294 295 295 294 294 293 293 293 293 293 293 292 292 293 292 292 292 292 292 291 290 289 289 288 288 288 289 290 291 291 291 291 292 292 292 291 291
306 305 305 304 304 303 303 302 302 302 302 302 301 301 301 300 300 299 298 298 299 297 295 294 295 296 296 296 296 295 294 294 294 293 292 291 290 289 289 290 291 293 293 293 293 294 294 294 294 295 295 294 294 294 293 293 293 293 293 293 293 293 293 293 292 292 292 292 291 290 290 289 289 288 288 289 290 290 290 290 290 291 291 291 290
306 305 305 304 303 303 303 302 302 301 301 301 301 301 301 300 300 300 300 299 299 299 297 295 295 296 297 298 298 297 296 296 296 295 295 293 291 290 289 290 291 292 293 293 293 294 294 294 294 295 295 295 294 294 294 294 294 293 293 293 292 292 293 293 293 293 293 292 292 292 291 290 290 289 288 289 290 290 290 290 290 291 291 290 290
306 305 304 303 303 303 302 302 302 301 301 301 301 301 301 301 301 301 301 300 299 299 299 296 294 296 298 298 298 298 298 298 298 297 296 296 294 291 290 290 291 292 293 293 293 294 294 294 295 295 295 295 295 294 294 294 294 294 293 293 293 292 292 292 293 293 293 293 293 292 292 291 290 289 288 288 289 290 290 290 290 290 291 290 290
305 304 303 303 303 302 302 302 302 301 301 301 300 301 301 301 302 301 300 300 300 300 299 297 294 296 298 299 298 299 299 298 298 298 297 297 296 293 291 290 291 292 293 293 293 293 294 294 295 295 295 295 295 295 294 294 294 294 294 294 293 293 293 292 292 292 293 293 293 293 292 291 290 290 289 288 289 289 290 289 289 290 290 289 289
304 303 303 303 302 302 302 301 301 301 301 301 300 300 300 300 301 300 299 299 298 298 299 297 295 295 298 299 299 299 299 298 298 299 298 298 297 295 293 290 289 290 291 291 292 293 294 294 295 295 295 295 295 295 295 294 294 294 294 294 294 294 293 293 292 292 292 292 293 293 292 292 291 290 289 288 288 289 289 289 289 289 289 289 289
304 303 303 303 302 302 302 301 301 301 300 300 300 300 299 299 299 299 299 299 297 296 295 295 294 296 298 299 299 299 299 299 299 299 299 298 297 297 295 292 290 289 289 290 290 291 292 293 294 295 295 296 295 295 295 295 295 294 294 294 294 294 294 293 293 292 292 292 292 292 292 292 291 291 290 289 288 289 289 289 289 289 288 289 289
305 304 302 302 301 301 301 301 301 300 300 300 300 300 299 299 298 298 298 298 297 296 294 294 296 297 298 299 299 299 299 299 299 299 299 298 298 297 296 293 290 289 289 289 289 290 290 291 292 294 295 295 296 295 295 295 295 295 295 294 294 294 294 293 293 293 293 292 292 292 292 292 292 291 291 290 289 288 289 289 289 289 288 288 289
306 304 303 302 301 301 301 301 300 300 300 300 300 300 299 299 299 298 297 297 297 297 297 297 298 299 299 299 299 299 299 299 300 300 299 299 298 297 296 293 291 290 290 289 290 290 290 291 292 293 295 295 295 295 295 296 296 295 295 295 295 294 294 294 293 293 293 293 292 292 292 292 292 292 291 291 290 289 289 289 289 289 288 287 288
304 303 303 303 302 301 301 301 300 300 300 300 300 300 299 299 299 298 298 297 298 298 298 299 299 299 299 299 299 299 299 300 300 300 300 299 298 297 296 293 291 290 290 290 290 290 291 292 293 294 294 295 295 295 295 295 296 296 296 296 295 295 295 294 294 294 293 293 293 293 292 292 292 292 291 291 290 289 289 289 289 289 288 288 287
303 302 302 302 302 301 300 300 300 300 300 300 300 300 299 299 299 298 298 298 298 298 299 299 299 299 299 299 299 299 300 300 300 299 299 298 298 297 296 294 292 291 290 290 290 290 290 291 293 294 294 295 295 295 295 295 296 296 296 296 296 295 295 295 295 294 294 294 294 294 293 292 292 292 292 291 291 290 289 289 289 289 289 288 288
302 302 301 301 301 301 300 300 300 300 300 300 300 299 299 298 298 298 298 298 299 299 299 299 299 299 299 299 299 299 299 299 299 299 298 298 297 296 296 295 293 291 290 290 290 290 290 291 293 293 294 295 295 295 295 295 295 296 296 296 296 296 295 295 295 295 294 294 294 294 294 293 293 292 292 292 291 291 290 289 289 289 289 289 289
302 302 301 301 300 300 300 300 300 300 300 300 299 299 298 298 298 298 298 299 299 298 298 299 299 299 299 299 299 299 298 298 298 298 297 297 296 295 295 293 292 290 290 290 290 291 291 293 293 294 295 295 295 295 295 296 295 295 296 296 296 296 296 296 296 295 295 295 295 295 295 294 293 293 292 292 292 291 291 290 289 289 289 289 289
301 301 301 301 301 300 300 300 300 299 299 299 299 299 299 298 298 298 298 298 298 298 298 299 300 300 299 299 298 298 298 298 298 298 297 297 296 295 293 292 291 290 290 291 292 293 294 295 295 295 296 296 296 296 296 296 295 295 295 296 296 296 296 296 296 296 296 296 295 295 295 295 294 293 293 292 292 292 291 291 290 289 289 289 289
301 300 300 300 300 300 300 300 300 299 299 299 298 298 298 298 298 298 298 298 298 298 299 299 300 300 299 299 299 299 299 298 298 298 298 297 296 294 292 292 291 291 292 293 294 295 296 296 297 297 297 297 297 297 297 296 296 295 295 296 296 296 296 296 296 296 296 296 296 296 295 295 295 294 294 293 293 292 292 292 291 290 289 289 289
300 299 300 300 300 300 300 300 299 299 299 299 298 298 298 298 298 298 298 298 298 299 299 299 300 300 300 299 299 299 298 298 297 297 296 296 295 293 291 291 292 293 294 295 296 297 297 297 298 298 298 298 298 298 297 297 296 296 295 295 295 296 296 296 296 296 296 296 296 296 296 295 295 295 295 294 294 293 292 292 292 291 290 289 289
299 299 299 299 300 300 300 299 299 299 299 299 298 298 298 299 298 298 298 298 298 299 299 300 300 300 300 299 299 298 297 297 296 296 294 293 293 292 292 292 294 295 296 297 298 298 298 298 298 298 298 298 299 299 298 298 297 297 296 296 296 296 296 296 296 296 296 296 296 296 296 295 295 295 295 295 294 294 293 293 292 292 291 290 289
300 300 300 299 300 300 300 299 299 299 299 299 298 298 298 299 299 298 298 298 299 299 299 300 300 300 300 299 298 298 297 297 297 297 295 294 293 294 294 296 297 297 298 298 299 299 298 298 298 298 298 299 298 298 298 298 298 297 297 297 297 297 297 297 297 297 297 297 296 296 296 295 295 295 295 294 294 294 294 294 293 293 292 291 290
300 300 300 299 299 299 299 299 299 299 299 299 298 298 298 298 298 298 298 298 299 299 299 300 300 300 300 299 299 298 298 298 298 297 297 296 296 296 298 299 299 299 299 299 299 299 299 299 298 298 298 298 298 298 298 298 298 298 298 297 298 297 297 297 297 297 297 297 297 297 296 296 296 295 295 295 294 294 294 294 294 293 293 292 292
300 300 299 299 299 299 299 299 299 299 299 298 298 298 298 298 298 298 298 299 299 299 300 300 300 300 300 300 299 299 299 299 299 299 298 298 298 299 299 299 299 299 299 299 299 299 299 299 299 299 299 299 298 298 298 298 298 298 298 298 298 298 298 298 298 298 298 298 297 297 297 296 296 296 295 295 294 294 294 294 294 294 293 293 292
300 300 299 299 299 298 298 298 298 298 298 298 298 299 298 298 298 298 298 299 299 299 299 298 298 299 300 300 300 299 299 300 300 300 300 300 300 300 300 299 299 299 299 299 299 299 299 299 299 299 299 299 299 299 299 298 298 298 298 298 298 298 298 298 298 298 298 298 298 297 297 297 297 296 296 295 295 294 294 294 294 294 294 293 293
300 300 299 299 298 298 298 298 298 298 298 298 299 299 299 299 299 299 299 300 299 298 298 297 298 299 300 300 300 300 300 300 301 300 300 300 300 300 300 300 299 299 299 299 299 299 299 299 299 299 299 299 299 299 299 299 298 298 298 298 298 298 298 298 298 298 298 298 298 298 297 297 297 297 296 295 295 295 294 294 294 294 294 294 293
300 300 299 299 298 298 298 298 298 298 298 298 299 299 299 299 299 299 299 300 299 299 298 298 299 300 300 300 300 300 300 301 301 300 300 300 300 300 300 299 299 299 299 299 299 299 299 299 299 299 299 299 299 299 299 299 299 299 299 299 298 298 298 298 298 298 298 298 298 298 298 298 297 298 297 296 295 295 294 294 294 294 294 294 293
300 299 299 298 298 298 298 298 298 298 298 299 299 298 298 298 298 298 298 298 298 298 298 299 299 300 300 300 301 301 301 301 301 300 300 300 300 300 299 299 299 299 299 299 299 299 299 299 299 299 299 299 299 299 299 299 299 299 299 299 299 299 299 299 299 298 298 298 298 298 298 298 298 297 297 297 296 295 295 295 295 294 294 294 294
300 299 299 299 298 298 298 298 298 299 299 299 299 298 298 298 298 298 298 298 298 298 299 299 300 300 300 301 301 301 301 301 301 300 300 300 300 300 300 300 299 299 299 299 299 299 299 299 299 299 300 299 299 299 299 299 299 299 299 299 299 299 299 299 299 299 298 298 298 297 297 297 297 297 297 297 296 295 295 295 295 294 294 294 294
300 299 299 299 298 298 298 298 298 299 299 299 299 298 298 298 298 298 298 298 298 299 299 299 300 300 300 300 301 301 301 300 300 300 300 300 300 300 300 299 299 299 299 299 299 299 299 299 299 299 299 299 299 299 300 299 299 299 299 299 299 299 299 299 299 299 298 298 298 297 297 297 297 297 297 297 297 296 296 296 295 295 294 294 294
Wind_Speed
23 23 22 21 21 22 22 21 21 21 21 20 20 21 21 20 21 23 22 21 20 20 21 21 20 20 20 20 20 19 19 20 20 21 22 23 22 21 21 21 23 23 22 22 22 22 22 21 20 20 20 21 21 21 20 18 16 15 14 14 15 15 15 11 6 13 24 28 29 32 33 33 33 33 33 35 35 36 37 38 37 37 37 37 38
23 22 22 22 22 22 23 23 23 22 22 22 22 22 22 21 22 23 22 22 20 20 21 21 20 20 20 20 19 18 18 19 19 20 21 21 20 19 19 21 22 22 21 21 21 21 21 20 19 18 18 19 19 19 19 18 17 17 17 16 17 17 16 15 12 12 21 30 32 32 33 33 33 33 33 34 36 37 38 39 38 37 37 37 38
24 23 23 23 23 23 24 24 24 23 23 23 23 23 22 22 23 22 22 22 21 20 20 21 20 20 20 19 19 18 17 18 18 18 19 20 20 20 20 20 20 20 20 20 20 20 20 19 18 17 17 18 18 18 18 18 17 17 18 17 17 17 17 17 16 13 18 27 32 32 33 33 33 33 34 34 35 36 37 37 37 37 37 37 38
24 24 24 24 24 25 25 25 25 25 25 24 24 23 23 23 23 21 21 21 21 20 20 20 19 19 19 19 19 18 17 17 17 18 19 20 21 21 20 20 19 19 19 19 19 19 20 19 18 17 17 18 18 18 18 18 18 17 17 18 17 17 18 18 19 18 18 24 30 32 32 32 32 33 34 34 36 36 35 35 35 36 38 38 39
26 25 25 26 26 26 26 26 26 26 26 25 24 24 24 24 22 21 21 21 20 20 20 19 19 18 19 19 18 17 17 17 18 19 19 20 21 21 20 19 19 18 18 18 18 18 19 19 19 18 17 18 18 18 18 18 18 18 18 18 18 18 18 19 20 21 21 24 29 31 31 30 32 33 33 34 36 38 37 35 35 37 39 40 40
27 27 26 27 27 27 27 27 27 26 26 25 25 25 25 24 23 21 20 20 20 20 20 19 18 18 19 19 18 17 16 17 19 20 20 19 18 18 18 17 17 16 16 16 17 18 18 18 18 18 18 18 18 18 19 18 18 18 19 19 18 18 19 20 21 23 24 24 27 29 30 30 31 33 34 33 33 35 37 36 36 39 41 41 41
28 27 27 27 27 28 28 27 27 27 26 26 26 26 25 24 22 21 20 19 20 21 20 20 19 18 19 18 17 16 17 18 19 19 18 17 16 15 15 15 14 14 14 14 15 16 17 17 17 18 18 18 18 18 18 18 17 18 18 19 18 19 20 21 23 24 24 24 25 26 28 29 29 31 34 34 32 32 34 33 33 37 40 41 41
29 28 27 28 28 28 28 28 27 27 27 27 27 26 25 24 22 21 20 19 20 21 20 20 19 19 19 18 16 16 18 19 19 17 16 15 13 13 12 12 12 12 12 13 14 15 15 16 16 17 18 17 17 17 17 18 18 18 18 18 18 19 21 22 23 24 24 23 24 25 26 28 29 31 34 36 33 32 35 33 31 36 40 39 38
30 29 28 29 29 29 29 28 27 27 27 28 27 26 25 23 22 20 19 19 20 21 20 20 20 20 19 18 17 17 18 19 17 16 15 13 12 11 10 10 9 10 11 12 13 14 14 14 15 16 16 15 14 14 15 15 17 17 17 17 18 19 21 22 23 23 23 23 23 25 25 26 30 31 33 35 32 33 39 37 32 36 39 36 32
30 30 30 30 31 30 30 29 29 28 28 28 27 26 25 23 21 19 18 19 20 21 21 21 20 20 20 19 18 18 18 17 16 15 13 12 11 10 9 8 7 7 9 11 12 12 12 12 13 14 14 14 13 13 13 13 14 15 15 16 16 18 20 22 22 22 22 23 23 24 23 24 30 32 30 34 35 36 40 38 33 35 36 31 29
31 31 31 32 32 32 31 30 29 29 29 28 27 26 24 22 20 18 17 19 21 22 22 21 21 20 20 20 19 19 17 16 15 14 13 11 10 9 8 7 6 6 7 9 10 11 10 10 10 11 13 13 12 12 13 13 13 14 15 15 15 16 18 19 21 21 21 22 24 24 23 24 30 33 32 34 36 37 40 38 34 33 30 27 26
31 31 32 33 33 32 31 31 30 30 29 28 27 26 24 22 19 17 17 19 21 22 22 22 22 21 21 20 20 19 17 15 15 14 12 11 10 8 7 7 6 6 5 6 7 8 8 8 8 10 12 12 11 12 12 13 13 15 16 16 16 18 17 16 18 20 21 21 23 25 25 25 29 33 34 35 36 38 39 37 34 31 28 27 26
31 31 32 33 33 32 32 31 31 30 30 28 27 26 23 21 18 16 17 19 21 23 23 22 22 22 21 20 20 19 17 16 14 13 12 11 10 9 7 6 7 6 5 5 4 6 7 6 6 9 10 10 10 11 12 13 15 16 18 18 18 20 19 16 16 18 19 20 22 25 26 26 29 33 35 35 36 38 37 36 36 32 27 28 31
31 32 33 33 33 33 32 32 31 31 30 29 27 25 23 21 18 17 18 20 22 23 23 23 22 22 21 20 20 19 17 16 14 13 12 11 10 8 6 5 7 7 5 4 2 4 5 5 6 9 10 10 11 12 13 15 16 18 20 19 19 20 20 18 17 17 19 20 21 24 26 26 29 33 35 36 36 36 36 37 37 34 31 33 39
29 31 33 33 33 33 33 32 32 31 30 29 27 25 23 21 19 19 19 21 22 22 22 22 22 22 21 20 19 18 17 15 14 13 12 11 9 7 6 6 6 7 6 4 1 2 4 4 6 9 10 10 11 12 14 15 17 19 20 20 20 20 20 20 19 19 19 20 20 23 25 27 29 32 34 37 36 36 36 37 37 36 36 37 38
28 30 32 32 33 34 33 32 32 31 31 29 28 26 24 21 20 20 20 21 21 21 21 22 22 21 20 19 19 18 16 15 13 12 11 10 8 6 6 7 7 7 7 6 3 2 3 3 5 8 9 9 10 12 13 15 17 18 20 20 22 22 21 21 21 20 21 20 20 21 22 25 27 29 32 36 37 37 37 37 37 37 34 31 29
30 31 32 33 34 34 33 33 32 31 31 30 29 27 24 22 21 20 21 21 21 21 21 21 21 21 20 19 18 18 16 14 12 11 9 8 7 7 7 7 7 7 7 6 4 2 2 2 4 7 8 8 9 11 13 14 16 17 19 21 22 23 23 24 23 23 23 22 21 20 20 23 26 28 32 36 38 38 36 34 36 37 31 23 21
31 32 33 33 34 34 33 33 32 32 32 31 30 28 25 23 21 20 20 21 21 21 21 21 21 20 19 18 18 17 16 14 12 10 9 7 7 7 8 8 7 7 7 6 4 2 2 3 4 6 7 8 9 10 12 14 16 16 18 20 22 23 24 25 25 24 24 24 24 23 22 23 26 29 33 36 39 40 36 33 35 35 30 24 25
33 34 34 34 34 33 33 33 33 33 32 31 30 28 25 23 20 19 19 20 20 21 20 20 20 19 18 17 16 16 15 14 12 10 9 8 8 8 9 9 9 8 7 7 5 4 3 4 5 6 7 8 8 10 11 13 14 15 16 19 21 22 23 24 24 26 27 27 28 27 26 26 27 30 34 36 40 41 39 37 36 34 30 30 33
33 33 33 33 33 33 33 33 33 33 33 32 30 28 25 23 20 19 19 19 20 21 20 20 20 19 18 16 16 15 14 12 11 9 8 7 7 8 9 10 10 9 8 7 6 5 5 5 5 6 7 7 7 9 10 11 13 13 14 16 18 21 22 23 24 26 27 29 30 30 29 29 29 31 34 37 40 42 42 41 38 35 32 31 33
32 32 32 32 33 33 33 33 33 32 32 31 30 28 26 23 21 21 21 21 21 21 20 20 19 18 17 16 15 14 12 11 10 8 7 6 6 7 8 9 9 9 8 8 7 6 7 6 5 6 7 7 8 9 9 10 11 12 13 15 16 18 21 23 25 26 28 29 31 32 32 32 32 33 35 37 40 42 43 44 42 39 36 33 32
32 32 32 33 33 33 33 33 32 32 32 32 31 30 28 25 23 22 22 22 22 22 21 20 19 18 18 16 15 14 12 11 9 8 7 6 6 6 6 6 7 7 8 8 7 7 6 5 5 6 7 7 8 9 8 9 10 11 13 14 16 19 21 23 25 27 28 30 32 34 34 34 34 35 36 37 39 42 43 44 44 42 39 37 34
32 32 32 33 33 33 33 33 33 32 32 32 32 32 29 27 25 25 24 24 23 22 22 21 20 19 18 17 16 14 13 12 10 9 8 7 6 6 6 6 6 7 8 8 8 7 6 5 5 6 7 7 8 9 8 9 10 11 13 14 16 19 21 24 26 28 29 31 32 34 35 34 34 35 36 36 38 41 42 43 44 45 43 41 38
32 32 32 32 32 32 32 32 33 32 33 33 33 32 31 30 28 27 26 25 24 23 22 21 21 20 19 18 16 15 13 12 10 9 8 7 7 6 5 6 7 7 8 8 7 6 5 5 6 7 7 7 8 9 9 9 10 11 12 14 15 18 20 23 26 27 29 30 31 32 33 34 34 34 35 35 36 38 40 41 42 44 44 44 42
32 32 32 32 32 31 31 31 32 32 33 33 33 33 33 32 30 29 27 25 25 24 23 22 21 20 19 18 17 15 13 12 11 10 8 7 7 6 5 6 7 8 8 8 7 6 5 5 6 8 8 8 9 9 9 9 10 11 12 13 14 17 19 21 24 26 28 29 29 30 31 32 33 32 33 34 34 36 39 41 41 43 44 45 44
33 32 31 31 31 31 31 31 31 32 33 33 33 33 34 33 31 30 29 27 25 25 24 23 22 20 20 18 17 15 14 12 11 10 9 8 7 7 6 7 8 9 9 8 7 6 6 6 7 8 9 9 10 10 10 10 10 11 12 12 13 15 17 19 21 23 25 27 28 29 30 32 33 33 33 34 35 36 38 40 41 42 43 44 43
33 31 31 31 31 31 32 32 31 32 32 33 32 32 33 33 31 30 29 27 26 25 25 25 24 23 22 20 18 16 15 13 12 11 10 9 8 7 7 8 9 9 9 8 7 7 8 8 8 9 10 11 11 12 12 12 11 12 12 12 13 14 15 17 19 20 23 25 27 29 30 32 33 34 35 35 35 36 37 38 39 41 41 40 37
32 31 31 31 31 31 32 32 32 31 32 32 32 32 32 32 31 30 29 29 29 29 28 28 27 26 25 22 20 18 17 16 15 13 11 9 8 8 8 9 10 10 10 9 8 9 9 10 9 9 10 11 12 13 13 13 12 13 13 13 13 14 15 16 17 19 21 24 26 29 31 33 34 34 35 35 35 35 36 37 38 38 39 38 34
31 30 30 30 30 30 31 32 32 32 31 31 31 31 32 32 31 31 31 31 32 32 31 31 30 28 26 23 22 21 20 17 15 13 11 9 7 8 8 8 9 10 10 9 10 11 11 11 10 10 11 11 13 14 14 14 14 14 14 14 14 15 15 16 17 19 21 23 25 28 29 32 33 33 34 35 35 35 35 35 36 37 37 36 34
29 28 29 29 30 30 30 30 31 31 31 31 29 28 29 30 30 30 29 29 29 29 29 31 31 29 25 23 21 20 17 13 11 11 12 11 10 9 9 9 9 10 11 12 13 13 13 12 11 12 12 12 13 14 15 15 16 16 16 16 16 16 16 16 17 18 20 22 24 26 27 30 32 32 33 34 35 35 35 35 35 36 36 35 34
29 28 29 30 31 32 31 31 30 30 30 31 30 28 27 26 27 28 26 26 26 26 27 28 29 27 24 21 20 18 16 13 12 11 11 12 12 12 11 11 12 13 14 15 15 16 15 14 13 13 12 13 14 14 15 16 17 18 18 18 18 17 17 17 18 19 20 21 23 25 26 28 30 31 31 32 33 34 35 35 35 35 35 34 33
31 30 30 31 31 32 31 30 30 29 28 29 30 30 28 25 23 23 24 24 24 25 26 27 27 26 23 21 20 19 17 16 15 14 12 12 14 14 14 13 14 15 16 16 17 18 17 16 16 15 14 14 14 14 15 16 18 19 19 20 20 19 18 18 18 19 20 21 22 24 25 26 28 29 30 31 31 33 34 35 35 34 34 34 34
33 31 30 30 30 31 30 30 30 30 29 29 29 29 29 27 24 23 22 22 23 25 26 27 27 26 24 23 22 20 18 17 16 15 15 15 15 16 16 16 16 17 17 18 18 18 17 17 18 17 16 15 15 14 15 16 18 19 20 20 21 21 19 18 19 19 19 20 21 23 24 25 26 28 29 30 30 31 32 33 34 34 33 33 33
33 32 32 32 32 32 32 31 32 31 31 31 31 30 30 30 29 26 24 21 21 23 26 27 28 28 26 25 24 22 20 19 18 17 17 16 16 17 18 18 18 19 19 19 19 18 18 17 18 18 17 17 16 15 16 17 18 19 20 20 21 21 21 20 19 19 19 20 21 22 23 24 24 25 27 29 29 30 30 31 32 32 32 31 31
31 32 33 34 34 34 33 33 33 32 31 32 33 33 32 31 30 29 27 25 24 24 26 27 27 27 26 25 24 23 22 22 21 19 17 17 18 19 20 21 21 22 22 21 21 19 18 18 18 19 18 18 17 17 16 17 18 19 20 21 21 22 21 21 20 20 20 20 21 22 22 23 23 23 25 27 27 28 28 29 29 30 30 29 30
30 31 32 33 33 33 33 33 33 32 32 33 34 34 33 32 30 29 28 27 26 26 25 24 23 23 24 24 25 24 24 23 21 18 17 17 18 20 21 23 24 23 23 23 22 20 19 19 20 19 19 19 19 18 18 18 18 19 20 21 22 22 22 21 21 21 21 21 21 22 22 22 22 22 23 25 26 26 26 27 27 28 29 29 29
31 32 33 33 32 31 31 31 31 31 32 33 33 31 30 29 29 28 26 26 26 25 24 22 21 21 22 22 22 21 21 19 18 17 17 17 18 20 23 24 24 24 23 23 22 21 20 20 21 21 20 20 20 19 20 20 20 20 20 21 22 22 22 22 22 22 22 21 21 21 22 22 21 20 20 22 24 25 25 25 26 26 28 29 29
33 33 34 34 32 31 30 29 29 29 30 31 31 30 29 29 28 28 28 28 26 24 23 21 21 20 20 20 19 19 18 18 18 19 19 19 20 22 24 25 25 24 24 23 22 21 21 21 21 21 21 21 21 21 21 21 21 20 20 21 22 22 22 22 22 22 22 23 22 21 21 21 20 19 19 20 21 23 24 24 24 25 26 27 28
30 31 33 33 33 32 31 30 29 29 29 29 30 30 30 29 29 29 30 28 26 24 23 21 21 21 20 20 20 20 20 20 20 21 22 22 23 24 25 25 25 24 24 23 22 22 22 22 21 22 22 21 21 21 21 21 20 20 20 21 21 22 22 22 22 23 23 24 24 22 22 21 20 20 19 19 19 20 21 23 23 23 22 23 25
30 30 32 33 32 31 30 30 30 30 29 29 29 30 30 30 30 30 30 28 26 25 24 23 22 22 21 21 21 22 22 22 23 24 25 25 25 26 26 26 25 24 24 23 23 23 23 23 23 23 23 23 22 22 21 21 20 19 20 20 21 21 22 23 23 24 24 25 25 25 24 23 22 20 20 20 19 19 19 20 21 21 21 20 21
28 29 30 32 31 30 29 30 30 30 30 30 30 30 30 30 31 30 30 29 28 26 25 24 24 23 22 22 23 23 23 23 23 24 25 26 27 27 27 26 25 25 24 24 24 24 25 25 25 25 24 24 23 23 22 21 21 20 20 20 20 21 22 23 24 25 26 27 27 27 26 25 23 22 22 21 19 19 19 19 19 20 20 19 19
26 27 29 31 31 30 30 30 30 30 30 30 30 30 31 31 30 30 29 29 28 26 25 25 24 23 22 23 23 23 23 23 22 23 24 25 26 26 27 26 26 25 25 25 25 25 25 26 25 25 24 22 22 21 21 21 20 20 20 20 20 21 22 23 24 25 26 28 28 28 27 26 24 24 24 22 20 19 19 19 18 19 19 19 19
27 29 31 32 32 32 31 31 30 29 30 30 30 29 29 29 29 29 29 28 27 26 26 26 24 22 22 23 23 23 23 23 22 23 23 24 25 26 26 26 25 25 25 25 25 25 25 26 24 23 21 19 19 19 19 19 19 20 20 21 22 22 23 24 25 25 26 27 28 29 29 28 27 26 26 24 22 20 20 20 19 18 18 19 18
29 30 31 32 32 30 30 31 30 30 30 30 29 28 27 27 28 29 28 27 26 26 26 25 23 22 22 23 23 22 22 21 22 23 24 25 26 26 26 25 25 25 25 24 24 24 24 24 23 21 19 17 18 19 19 19 19 20 21 22 23 24 24 25 25 26 27 28 29 30 30 29 29 29 28 26 24 22 22 22 21 19 18 18 18
29 30 31 31 30 28 28 29 30 29 29 28 27 27 27 27 28 28 28 27 26 26 26 24 22 22 23 24 23 23 22 22 23 24 25 26 27 27 26 25 24 24 24 23 22 22 23 23 23 21 20 19 19 20 20 20 21 22 22 24 25 25 25 26 26 27 28 29 30 30 30 30 29 29 29 27 25 24 23 23 22 21 20 19 18
29 30 30 30 29 28 27 28 29 29 28 28 27 27 27 27 28 28 27 27 26 25 24 23 23 24 25 26 25 25 24 24 24 25 25 26 26 26 25 25 24 24 23 22 21 22 22 23 22 22 22 21 20 21 21 21 21 22 22 24 25 26 26 26 26 27 28 29 29 30 29 29 29 29 28 27 25 24 24 23 23 22 22 20 19
29 29 29 29 28 27 27 27 28 28 28 28 27 27 27 27 27 26 27 27 26 26 25 24 24 25 25 25 25 26 26 25 25 25 24 24 24 24 24 25 24 24 23 21 21 21 22 22 22 22 21 21 21 21 20 19 20 20 21 22 23 24 24 24 25 25 26 27 28 29 28 28 29 29 28 27 26 25 25 24 23 23 23 22 21
28 28 28 28 27 26 26 27 28 28 27 27 26 25 25 25 25 25 26 26 26 26 25 24 24 24 25 24 24 25 26 26 25 25 24 24 23 22 22 23 23 23 22 22 21 21 22 22 21 21 21 20 20 20 19 19 20 21 22 22 23 23 23 23 24 24 25 26 27 27 27 28 28 28 28 28 27 26 25 25 24 24 23 22 22
28 27 27 27 27 27 27 29 29 29 27 26 25 24 24 24 25 25 25 25 25 25 24 23 23 24 25 24 25 25 26 26 26 26 25 24 22 22 22 22 22 23 23 23 22 21 21 21 21 21 21 20 19 19 19 20 20 22 23 23 23 24 23 23 23 24 24 25 26 26 26 27 28 28 28 29 28 27 26 26 26 25 24 23 23
27 27 27 27 27 27 28 29 30 30 28 26 25 26 26 25 24 23 23 23 24 23 23 23 24 24 24 23 23 24 25 26 26 25 24 23 22 22 22 23 24 24 24 23 22 21 21 22 22 21 21 20 20 19 19 19 19 21 21 21 21 22 22 22 23 24 25 26 26 26 26 26 27 28 28 29 28 27 27 27 27 26 25 25 24
27 27 26 26 26 26 26 27 29 28 27 26 27 28 27 25 23 22 22 23 23 22 22 23 24 25 24 23 23 23 24 25 25 25 24 23 22 22 23 23 24 24 24 23 23 22 22 21 21 21 21 20 20 19 19 19 19 19 19 19 19 20 20 20 21 23 25 26 26 26 26 26 26 27 27 28 27 27 27 26 26 26 26 26 25
Wind_Direction
170 171 172 173 173 172 173 173 171 169 166 165 166 165 165 165 163 161 159 159 158 157 156 154 152 148 143 140 135 129 125 122 120 115 109 103 99 95 95 92 89 88 85 79 73 68 67 71 72 70 66 62 59 55 52 48 44 41 35 27 21 14 3 354 315 305 328 338 337 339 344 343 342 346 344 341 343 342 340 339 337 334 332 330 329
170 171 170 171 173 173 173 172 171 170 167 168 168 167 167 166 164 162 160 160 161 160 158 156 154 150 146 142 137 132 127 124 123 119 111 105 101 97 96 95 92 88 83 77 71 67 66 71 74 71 65 61 57 52 45 41 38 33 29 26 19 15 7 354 339 316 322 333 336 338 343 342 340 344 344 339 338 338 336 336 336 333 331 330 328
169 169 169 170 172 172 172 171 171 171 170 170 170 168 167 165 164 164 161 161 162 162 161 158 155 152 148 144 139 134 129 127 125 121 115 108 104 101 99 96 93 87 82 76 70 65 66 71 74 69 63 60 54 47 39 33 31 29 25 22 18 14 10 360 347 330 318 327 334 336 339 341 339 341 343 339 337 335 333 334 334 332 331 330 328
168 168 168 168 170 170 171 171 171 172 171 171 171 169 166 164 164 164 162 162 163 163 162 161 158 155 151 147 142 137 133 132 129 124 119 112 106 103 100 96 93 87 82 77 69 64 65 70 72 65 60 56 48 40 35 30 27 27 22 18 16 10 6 1 352 342 325 323 331 336 337 338 338 340 341 339 337 336 333 333 333 332 331 331 329
168 168 168 167 169 170 171 172 173 173 172 172 171 169 165 164 164 165 163 163 164 164 164 164 162 158 154 150 146 141 138 137 134 129 124 116 108 103 99 96 93 89 83 77 69 64 64 68 69 61 54 49 41 34 30 27 23 22 19 15 12 5 359 356 353 347 336 327 328 334 337 336 336 340 343 339 336 336 335 334 334 332 331 331 330
168 169 169 168 170 172 173 174 174 174 173 171 170 168 165 165 165 165 165 165 166 167 167 166 165 160 156 154 150 145 144 142 137 132 128 121 113 106 102 98 95 91 85 77 70 64 64 67 64 57 49 40 33 28 24 23 20 18 16 11 6 1 356 354 351 347 342 333 329 331 336 337 335 338 343 341 335 333 333 331 332 333 332 330 328
169 170 171 171 172 173 174 175 175 174 173 170 169 167 166 166 167 167 168 169 169 169 169 167 165 161 157 156 153 151 150 146 140 135 132 127 120 114 109 104 100 94 87 79 72 65 63 65 60 52 44 34 26 22 18 16 17 16 13 7 2 358 354 352 349 346 340 336 333 331 332 336 335 335 340 342 337 335 333 329 327 328 330 328 325
171 172 173 173 173 174 174 175 175 173 172 169 168 167 167 168 169 169 170 173 174 173 172 168 165 162 160 158 158 158 157 152 146 142 139 134 129 124 118 112 105 99 92 83 74 67 63 62 57 46 37 30 23 19 14 11 11 12 8 3 359 356 353 350 347 344 340 336 335 334 333 335 337 337 339 341 338 335 334 331 323 322 325 325 323
173 173 174 173 173 173 173 173 173 172 170 168 168 168 168 169 170 171 173 176 177 176 175 172 168 164 162 161 162 163 162 160 158 154 149 145 142 137 131 122 110 101 96 88 77 69 63 58 52 41 31 25 21 17 15 11 9 7 4 1 359 355 351 348 346 343 341 337 335 336 335 335 336 337 337 338 335 331 331 330 323 320 321 319 320
173 172 172 171 171 171 171 171 171 170 169 169 169 169 169 170 171 172 175 179 179 177 175 174 172 169 166 166 166 167 167 167 165 163 158 155 155 152 147 137 120 106 97 90 80 70 64 57 47 36 26 21 17 15 15 13 8 4 1 359 358 355 350 346 346 345 342 338 335 336 334 331 335 335 332 334 334 331 331 329 323 322 323 320 322
172 170 169 169 169 170 171 170 170 170 170 171 171 170 170 171 171 173 177 181 180 178 177 176 174 173 171 171 172 172 172 170 166 165 161 160 163 162 162 158 143 122 104 93 82 69 61 56 45 30 20 16 14 13 12 8 1 357 356 355 355 355 352 347 347 348 344 338 336 337 333 329 333 336 333 333 333 331 330 327 324 324 324 324 324
171 169 168 168 170 171 171 171 171 171 172 172 172 172 172 171 172 174 178 181 180 178 178 177 176 176 175 175 176 176 175 172 168 166 163 162 165 166 168 175 170 151 126 105 84 63 53 52 44 27 16 12 10 8 6 1 355 351 350 352 354 357 359 356 352 350 347 341 337 338 337 331 332 337 337 334 331 330 329 327 325 324 323 324 322
171 170 169 170 171 172 172 171 171 172 173 174 174 173 173 172 173 176 178 179 179 179 179 179 177 178 178 179 179 179 177 175 173 171 168 166 166 168 171 179 183 177 153 125 90 50 39 43 41 25 15 10 4 1 358 354 351 349 349 354 358 359 2 4 1 354 352 347 340 339 342 338 334 339 342 339 333 330 328 326 326 326 324 324 321
171 171 170 171 172 172 173 173 173 174 175 175 175 174 175 175 175 178 179 177 177 178 179 180 179 179 181 181 180 180 178 177 177 175 173 172 171 177 183 179 181 183 172 149 109 32 23 28 27 18 12 8 360 356 354 351 349 348 350 356 0 1 3 5 4 360 357 354 345 343 349 348 341 343 348 345 338 334 331 327 327 327 326 326 325
171 171 170 171 172 173 174 174 174 175 175 176 176 176 176 177 177 179 180 178 178 178 177 179 180 180 182 183 181 180 179 178 179 180 179 179 181 190 195 185 181 185 187 187 197 4 8 16 15 8 5 3 357 351 350 350 347 346 349 355 360 3 5 5 4 1 358 356 351 348 351 352 349 350 352 350 346 341 337 334 332 331 328 327 326
170 171 171 172 174 175 176 175 175 175 175 175 176 177 178 178 178 180 179 178 177 177 176 178 180 179 180 183 182 180 178 178 180 182 184 185 187 192 192 189 187 190 197 208 226 320 348 2 4 358 356 356 352 348 347 346 345 344 348 354 359 2 6 6 6 4 0 357 354 349 348 350 352 353 355 355 352 347 343 341 339 337 331 327 324
172 174 174 175 176 177 177 177 176 175 176 176 177 178 178 178 179 180 180 178 177 178 177 178 180 180 179 181 181 178 175 175 177 180 183 185 185 186 190 194 195 197 204 214 226 276 318 330 342 343 345 347 344 342 343 343 343 345 348 353 358 2 4 6 7 7 4 1 358 353 349 351 354 355 358 360 358 353 347 341 341 339 334 327 323
175 177 178 178 178 178 179 180 178 176 177 178 179 179 179 178 180 182 182 180 177 178 179 178 180 182 181 181 183 181 176 174 176 181 186 191 197 199 201 202 201 202 206 210 222 252 270 290 321 330 333 339 339 335 339 342 344 347 351 355 358 1 3 4 4 5 5 4 2 360 357 356 358 358 360 2 2 359 351 343 342 341 335 329 325
179 180 180 180 179 180 180 182 181 179 178 180 181 181 179 179 179 181 183 181 176 176 178 178 179 181 182 183 186 186 184 182 185 192 199 208 215 213 211 210 207 207 209 211 223 238 241 261 297 318 326 332 331 328 334 342 346 351 357 359 360 1 3 3 2 2 3 3 3 3 1 0 1 0 0 2 4 2 356 350 347 344 336 330 330
181 181 180 179 180 181 182 183 183 181 181 182 182 182 181 179 178 178 179 177 175 174 177 178 178 178 181 185 188 192 194 192 192 197 201 205 208 207 210 214 213 214 216 219 228 230 226 243 275 302 317 323 321 319 328 342 350 357 4 5 3 2 3 5 5 4 4 4 4 4 3 2 2 2 1 2 3 4 1 356 353 348 342 335 334
180 179 179 180 180 181 183 184 185 184 184 185 183 183 183 181 178 176 175 174 172 172 174 176 177 176 179 183 186 189 192 189 185 184 183 186 189 192 202 213 216 219 221 222 224 220 221 238 267 295 311 314 313 315 324 341 352 0 7 9 7 5 5 7 8 8 7 7 6 6 5 3 3 3 3 2 2 3 3 1 357 353 350 343 337
179 179 179 180 181 181 184 186 186 185 186 185 183 182 182 182 179 177 175 174 172 171 172 174 174 173 174 177 178 178 178 177 175 174 174 177 179 181 191 203 210 212 211 209 206 209 222 245 273 297 307 308 310 313 319 335 350 358 3 7 8 8 9 8 8 9 9 8 8 7 5 3 2 2 3 3 2 2 3 3 1 357 355 352 347
178 178 179 180 181 182 184 185 186 186 186 186 184 182 181 180 179 178 176 174 172 172 174 174 174 173 173 173 174 174 173 173 172 170 170 172 174 178 185 194 202 202 197 195 199 210 231 259 285 301 305 303 307 312 315 326 342 353 358 2 4 6 8 9 10 10 9 9 8 7 5 3 0 0 1 2 3 3 2 4 3 1 358 357 356
176 178 179 181 181 182 183 184 185 187 187 186 184 183 182 181 180 179 178 176 174 174 174 175 175 175 175 174 175 175 175 175 173 172 173 174 173 177 188 194 198 198 195 195 204 219 241 267 289 302 302 298 302 309 313 319 332 345 351 356 359 1 4 7 8 8 8 8 7 4 3 2 0 360 0 1 3 4 2 3 5 3 0 359 359
176 178 179 180 181 181 182 183 185 187 188 187 185 184 182 181 181 181 181 180 179 178 178 180 180 179 178 179 178 177 178 178 178 179 183 186 183 183 193 196 195 195 195 200 212 228 252 275 291 300 299 293 296 304 310 316 323 333 341 348 352 356 360 3 5 5 6 6 4 1 2 3 2 1 1 3 5 5 3 2 4 5 3 1 1
177 178 179 180 180 181 181 182 185 188 188 189 190 188 186 184 184 185 186 186 186 187 186 188 189 188 187 185 182 182 185 186 186 188 193 196 194 195 198 196 195 196 199 208 221 239 262 276 285 292 293 290 291 297 305 314 320 326 332 337 343 349 354 358 1 1 1 1 360 359 0 2 3 3 3 4 6 6 4 1 0 3 3 1 360
177 177 178 178 179 181 182 182 184 186 187 188 189 189 189 189 187 186 187 188 190 194 196 196 196 197 197 194 192 193 196 197 198 201 203 203 201 204 206 201 200 203 208 219 234 249 263 272 279 286 290 289 288 291 299 309 317 323 327 329 334 341 347 351 355 356 356 356 356 357 359 2 4 4 3 4 5 6 6 3 359 359 1 0 357
177 177 178 178 179 182 184 184 183 185 186 187 187 188 188 188 189 192 196 197 196 199 201 202 202 202 200 199 200 203 207 212 212 210 208 205 204 210 213 209 208 211 217 229 244 255 263 270 277 283 288 288 286 286 294 302 310 317 322 326 331 335 340 344 348 351 353 353 353 355 357 359 2 3 2 2 3 5 6 6 2 359 0 1 358
177 177 177 178 180 182 184 185 185 185 186 187 189 192 193 194 197 201 205 206 206 205 204 205 206 206 204 203 206 209 213 217 216 212 211 212 215 223 226 222 218 219 225 238 250 258 262 268 274 277 283 287 287 287 291 298 305 312 318 323 327 332 337 340 343 346 349 350 350 352 354 355 358 0 1 1 1 3 5 5 4 2 2 1 358
175 176 177 179 181 182 183 185 187 187 186 186 188 192 196 201 206 209 209 211 212 213 213 211 210 209 209 209 212 214 216 219 218 217 220 222 225 231 235 234 229 229 235 246 255 260 263 268 274 277 280 286 289 291 294 296 300 306 313 319 323 327 333 338 339 342 344 345 346 348 350 352 353 356 359 359 358 0 3 4 5 4 3 0 357
174 177 180 183 184 185 184 185 187 187 187 186 186 187 190 197 205 211 214 215 216 218 220 219 217 215 216 217 219 221 226 232 235 234 232 230 231 234 236 235 234 235 241 249 256 261 264 269 275 279 282 284 287 291 296 297 298 302 306 312 318 323 329 333 336 339 340 341 343 344 346 348 350 352 355 356 356 358 1 2 4 5 4 2 358
177 180 184 186 187 186 185 186 186 186 185 185 187 188 188 189 195 204 212 217 219 219 218 217 218 221 224 227 230 231 233 237 241 242 239 236 236 237 238 240 241 241 245 250 255 259 263 268 273 277 280 283 285 289 295 297 299 301 302 305 312 319 326 329 331 334 336 337 339 341 342 344 346 348 351 354 355 357 358 360 2 2 3 4 2
184 185 185 185 185 186 186 186 185 185 185 185 186 188 188 188 190 197 205 213 219 219 217 217 220 225 229 233 238 241 243 245 247 248 245 240 239 239 238 239 243 245 247 250 255 260 263 266 269 272 274 279 283 288 293 296 299 302 301 301 306 314 321 325 326 329 332 333 335 337 339 341 342 345 348 351 353 356 357 358 359 0 1 2 1
190 189 187 187 186 187 188 187 186 186 187 187 187 189 191 193 197 199 200 204 211 216 220 223 226 230 234 238 241 244 247 248 253 256 252 244 241 240 238 238 241 245 248 250 255 260 265 267 269 270 271 275 280 285 289 295 299 302 303 303 305 310 316 320 323 326 330 332 333 336 337 339 340 341 343 347 350 354 356 357 358 358 359 359 358
192 191 191 190 189 188 189 189 188 187 186 187 190 193 195 197 200 200 200 202 207 213 219 225 229 233 237 241 243 246 249 252 255 257 253 244 241 239 235 234 239 244 248 251 254 260 267 271 271 271 270 272 277 281 286 293 298 301 304 306 307 308 312 317 321 325 328 330 333 336 337 337 338 338 338 341 346 350 354 356 357 356 356 357 358
190 190 190 190 190 190 190 190 189 188 188 190 194 196 197 198 199 201 203 205 208 214 220 225 229 233 237 241 244 247 249 251 250 248 242 239 241 239 235 235 241 247 250 253 256 262 267 270 271 272 272 272 275 281 287 293 297 300 302 304 306 306 308 312 317 321 324 327 331 334 335 336 337 337 335 337 341 345 349 353 355 357 357 356 358
189 189 189 190 190 189 189 190 190 190 191 192 193 194 196 197 199 200 203 206 212 217 220 222 224 228 233 237 240 240 240 239 236 234 232 234 238 240 240 241 246 250 253 256 259 263 267 270 272 273 273 275 278 283 289 294 297 298 299 300 302 303 304 307 310 313 317 321 326 331 333 334 335 335 332 333 337 340 345 349 353 355 357 358 358
191 192 190 189 188 188 189 190 190 191 191 191 191 192 194 196 198 199 203 208 214 217 218 218 221 225 228 229 229 228 229 228 226 225 227 230 234 239 241 244 247 250 254 259 262 265 268 270 272 273 274 277 281 285 290 295 298 297 295 295 298 301 302 303 306 308 311 314 319 323 327 330 333 333 330 330 333 335 339 345 349 352 356 358 358
191 193 192 190 188 188 188 188 188 190 189 188 190 193 194 195 196 200 203 207 210 214 215 217 221 225 225 225 225 225 226 225 226 226 228 232 238 241 243 244 247 251 256 260 264 267 270 271 273 275 277 281 285 289 293 297 298 296 294 292 294 299 301 302 304 306 307 309 313 316 319 324 328 329 327 327 330 332 335 339 344 348 352 355 357
192 192 191 189 187 186 187 187 187 188 189 188 190 193 195 196 198 201 203 204 206 210 214 219 224 228 227 227 229 231 230 231 234 235 236 239 243 245 244 246 249 253 257 261 264 268 271 274 277 279 281 284 288 290 293 295 296 295 293 292 293 297 301 303 304 304 304 305 308 310 313 317 321 322 323 325 327 328 330 334 338 341 346 350 353
189 187 185 185 185 185 187 188 189 190 190 191 192 195 197 200 202 203 204 205 207 211 216 223 230 233 233 233 236 238 239 242 245 246 246 246 248 248 247 249 252 256 260 264 267 271 274 277 280 283 285 288 289 288 289 291 292 291 290 291 294 298 301 303 304 305 305 306 305 307 311 314 315 314 315 320 323 324 325 328 331 335 339 344 348
186 183 183 184 186 187 188 189 191 192 193 193 195 197 199 202 204 205 207 208 210 213 220 227 233 236 237 239 241 244 247 250 252 253 253 252 251 251 251 253 257 261 264 267 271 274 276 278 281 284 287 288 289 288 287 287 287 288 288 290 293 296 299 302 305 306 307 308 308 309 311 313 313 312 310 311 315 317 319 321 324 328 332 337 342
192 189 187 187 189 190 191 191 191 192 193 195 196 198 200 203 206 208 210 211 212 216 222 228 234 238 241 244 247 249 251 252 252 254 255 254 253 253 255 258 262 265 267 269 272 274 277 279 282 284 286 286 286 287 287 286 286 287 287 289 292 294 297 301 304 307 309 310 311 312 313 313 314 313 310 308 308 308 311 314 316 319 325 330 334
193 189 188 188 190 192 193 193 193 194 196 197 198 200 203 206 208 209 210 211 214 220 226 232 238 244 248 251 252 253 254 255 256 256 257 256 255 256 258 260 263 266 267 270 273 275 278 280 282 283 284 283 282 284 286 285 285 286 287 288 291 293 295 298 302 306 309 310 310 312 312 312 313 312 311 309 307 304 303 306 308 311 317 322 326
192 189 188 189 190 192 193 194 195 197 197 197 198 202 206 208 210 210 211 213 217 224 231 237 243 249 253 256 257 257 259 262 263 262 261 259 258 259 260 262 264 266 268 270 274 276 279 282 284 285 286 285 284 285 285 285 285 286 287 288 290 291 294 297 300 304 306 306 307 309 310 311 312 311 310 310 308 303 300 301 302 304 307 311 316
192 191 191 191 191 192 193 194 195 197 197 197 198 202 206 209 210 211 212 216 221 228 235 241 246 251 255 258 259 261 264 267 268 266 264 262 261 261 263 264 265 267 269 272 275 277 279 282 284 285 286 285 284 285 285 285 285 285 286 288 290 291 294 297 299 302 303 304 305 307 308 309 311 312 311 310 308 305 301 299 298 298 299 302 306
194 193 194 194 193 192 193 194 194 195 196 196 198 202 207 210 212 213 215 219 225 232 238 243 248 253 256 258 260 263 267 269 268 266 264 263 263 263 264 264 265 267 270 273 274 274 276 279 281 283 284 283 283 283 284 285 285 286 287 289 290 292 295 297 299 301 303 303 304 306 307 308 311 312 311 309 307 305 303 300 298 297 296 296 298
195 195 195 195 193 192 192 193 193 194 195 196 198 204 210 215 216 218 220 225 230 235 240 245 250 255 256 258 261 264 266 267 265 263 262 263 263 262 262 263 264 266 269 271 271 273 277 281 284 286 287 287 286 285 285 285 285 286 288 290 291 292 295 297 298 300 301 301 303 305 306 307 308 309 309 308 305 303 303 301 299 298 295 293 294
195 195 194 194 194 193 194 194 194 193 194 196 201 208 216 221 223 224 227 232 236 239 242 247 253 257 259 260 260 261 263 263 262 262 262 264 265 264 264 265 267 268 270 273 276 278 281 284 286 288 289 288 287 285 284 284 284 283 285 287 289 290 292 293 294 295 296 298 300 302 303 304 305 305 306 306 304 303 302 300 299 298 295 292 292
197 196 195 194 194 195 196 196 196 196 197 201 208 215 220 223 224 227 231 236 239 241 244 250 255 259 262 261 259 258 259 259 260 261 262 263 265 266 268 269 270 271 273 275 277 279 279 280 281 282 283 283 284 285 286 287 285 282 282 284 285 285 287 287 286 287 290 294 298 300 300 301 301 302 304 305 304 302 302 302 300 298 295 292 291
198 197 196 195 194 194 195 196 196 197 201 205 211 216 219 222 226 231 236 239 241 242 246 251 256 260 264 264 262 259 258 258 260 261 261 261 262 263 266 269 272 274 276 277 279 280 280 280 280 282 282 282 283 285 288 289 287 285 286 288 288 288 289 288 286 286 288 291 295 297 299 300 302 304 305 306 304 302 301 301 299 297 295 292 290